Location: St. Louis
(38.6270°N, 90.1994°W)
Time: 09:42:38
(UTC-05:00)

Tiros 1 - Visible Passes

Search period start: 27 May 2022 00:00
Search period end: 06 June 2022 00:00
Orbit: 629 x 663 km, 48.4° (Epoch: 26 May)

Date Brightness Start Highest point End Pass type
(mag) Time Alt. Az. Time Alt. Az. Time Alt. Az.
27 May 8.9 01:12:48 26° ENE 01:12:48 26° ENE 01:14:50 10° ENE visible
27 May 8.7 02:50:24 20° WNW 02:52:44 31° NNW 02:56:54 10° NE visible
27 May 9.3 04:32:04 10° NW 04:35:55 25° N 04:39:49 10° ENE visible
28 May 8.1 01:36:45 45° N 01:36:45 45° N 01:40:33 10° NE visible
28 May 9.2 03:15:06 10° WNW 03:18:56 25° N 03:22:49 10° NE visible
28 May 9.1 04:58:00 10° NW 05:02:08 30° NNE 05:06:18 10° ENE visible
29 May 9.3 00:22:59 18° ENE 00:22:59 18° ENE 00:24:10 10° ENE visible
29 May 8.7 02:00:34 26° NW 02:02:02 32° NNW 02:06:14 10° NE visible
29 May 9.3 03:41:23 10° NW 03:45:12 24° N 03:49:03 10° ENE visible
30 May 8.3 00:46:38 40° NNE 00:46:38 40° NNE 00:49:53 10° NE visible
30 May 9.2 02:24:22 10° WNW 02:28:14 25° N 02:32:07 10° NE visible
30 May 9.1 04:07:21 10° NW 04:11:26 29° NNE 04:15:32 10° ENE visible
30 May 9.2 23:32:24 17° ENE 23:32:24 17° ENE 23:33:30 10° ENE visible
31 May 8.7 01:09:56 27° NW 01:11:21 33° NNW 01:15:34 10° NE visible
31 May 9.3 02:50:42 10° NW 02:54:29 24° N 02:58:18 10° ENE visible
31 May 8.5 04:33:04 10° NW 04:37:32 42° NNE 04:42:00 10° E visible
31 May 7.6 23:54:48 57° NNW 23:54:48 57° NNW 23:59:14 10° NE visible
01 Jun 9.2 01:33:39 10° WNW 01:37:31 26° N 01:41:25 10° NE visible
01 Jun 9.1 03:16:42 10° NW 03:20:43 28° NNE 03:24:46 10° ENE visible
01 Jun 7.4 04:58:45 10° NW 05:03:26 76° NNE 05:08:08 10° ESE visible
01 Jun 8.9 20:55:36 10° SE 20:56:46 11° SE 20:57:56 10° ESE visible
01 Jun 6.9 22:33:40 10° SW 22:38:14 66° SE 22:42:49 10° ENE visible
02 Jun 8.6 00:16:25 10° W 00:20:39 35° NNW 00:24:54 10° NE visible
02 Jun 9.4 02:00:00 10° NW 02:03:46 24° N 02:07:34 10° ENE visible
02 Jun 8.5 03:42:26 10° NW 03:46:49 40° NNE 03:51:15 10° E visible
02 Jun 8.0 21:18:14 10° SSW 21:22:05 27° SE 21:25:56 10° ENE visible
02 Jun 7.5 22:59:26 10° WSW 23:03:59 62° NNW 23:08:34 10° NE visible
03 Jun 9.2 00:42:54 10° WNW 00:46:48 26° N 00:50:43 10° NE visible
03 Jun 9.2 02:26:02 10° NW 02:30:00 27° NNE 02:34:00 10° ENE visible
03 Jun 7.4 04:08:06 10° NW 04:12:45 70° NNE 04:17:26 10° ESE visible
03 Jun 7.0 21:43:03 10° SW 21:47:35 60° SE 21:52:08 10° ENE visible
03 Jun 8.6 23:25:40 10° W 23:29:57 36° NNW 23:34:15 10° NE visible
04 Jun 9.4 01:09:17 10° NW 01:13:03 24° N 01:16:49 10° NE visible
04 Jun 8.6 02:51:48 10° NW 02:56:07 38° NNE 03:00:29 10° E visible
04 Jun 7.2 04:33:54 10° WNW 04:38:27 57° SW 04:43:03 10° SE visible
04 Jun 7.4 22:08:43 10° WSW 22:13:18 67° NNW 22:17:55 10° NE visible
04 Jun 9.2 23:52:09 10° WNW 23:56:05 27° N 00:00:02 10° NE visible
05 Jun 9.2 01:35:21 10° NW 01:39:17 27° N 01:43:14 10° ENE visible
05 Jun 7.5 03:17:27 10° NW 03:22:04 65° NNE 03:26:43 10° ESE visible
05 Jun 8.1 05:00:08 10° W 05:03:57 25° SW 05:07:49 10° S visible
05 Jun 7.2 20:52:26 10° SW 20:56:57 55° SE 21:01:27 10° ENE visible
05 Jun 8.5 22:34:56 10° W 22:39:15 38° NNW 22:43:35 10° NE visible
